Weather History for Cloquet, MN

Change the Weather History Date:

Friday, May 17, 2013

  Actual Average Record
Temperature  
Mean Temperature 50 °F -  
Max Temperature 57 °F 58 °F 73 °F (1998)
Min Temperature 44 °F 37 °F 28 °F (2002)
Degree Days  
Heating Degree Days 14    
Moisture  
Dew Point 31 °F    
Average Humidity 48    
Maximum Humidity 61    
Minimum Humidity 33    
Precipitation  
Precipitation 0.00 in - - ()
Sea Level Pressure  
Sea Level Pressure 30.05 in    
Wind  
Wind Speed 12 mph (East)    
Max Wind Speed 20 mph    
Max Gust Speed 26 mph    
Visibility 10 miles    
Events      
Averages and records for this station are not official NWS values.
T = Trace of Precipitation, MM = Missing Value Source: NWS Daily Summary

Daily Weather History Graph

Daily Weather History Graph

Search for Another Location

Airport:

Trip Planner

Search our weather history database for the weather conditions in past years. The results will help you decide how hot, cold, wet, or windy it might be!

Date:

Astronomy

May. 17, 2013 Rise Set
Actual Time 5:32 AM CDT 8:40 PM CDT
Civil Twilight 4:56 AM CDT 9:16 PM CDT
Nautical Twilight 4:10 AM CDT 10:03 PM CDT
Astronomical Twilight 3:13 AM CDT 11:01 PM CDT
Moon 12:16 PM CDT (5/17) 1:23 AM CDT (5/17)
Length of Visible Light 16h 19m
Length of Day
15h 07m
Waxing Crescent, 45% of the Moon is Illuminated
May 17
Waxing Crescent
May 17
First Quarter
May 24
Full
May 31
Last Quarter
Jun 8
New

Hourly Weather History & Observations

Time (CDT) Temp. Windchill Dew Point Humidity Pressure Visibility Wind Dir Wind Speed Gust Speed Precip Events Conditions
12:15 AM 46.4 °F 42.4 °F 30.2 °F 53% 30.02 in 10.0 mi East 8.1 mph - N/A   Mostly Cloudy
12:36 AM 46.4 °F 41.9 °F 30.2 °F 53% 30.02 in 10.0 mi East 9.2 mph - N/A   Mostly Cloudy
12:56 AM 44.6 °F 40.7 °F 30.2 °F 57% 30.02 in 10.0 mi East 6.9 mph 10.4 mph N/A   Mostly Cloudy
1:15 AM 44.6 °F 40.7 °F 30.2 °F 57% 30.02 in 10.0 mi East 6.9 mph - N/A   Mostly Cloudy
1:36 AM 46.4 °F 42.4 °F 30.2 °F 53% 30.04 in 10.0 mi ESE 8.1 mph - N/A   Mostly Cloudy
1:56 AM 44.6 °F 39.2 °F 30.2 °F 57% 30.04 in 10.0 mi East 10.4 mph - N/A   Overcast
2:15 AM 44.6 °F 39.7 °F 30.2 °F 57% 30.05 in 10.0 mi East 9.2 mph - N/A   Scattered Clouds
2:36 AM 44.6 °F 40.2 °F 30.2 °F 57% 30.04 in 10.0 mi East 8.1 mph - N/A   Mostly Cloudy
2:56 AM 44.6 °F 38.8 °F 30.2 °F 57% 30.04 in 10.0 mi East 11.5 mph 16.1 mph N/A   Overcast
3:15 AM 44.6 °F 40.2 °F 30.2 °F 57% 30.04 in 10.0 mi East 8.1 mph - N/A   Overcast
3:36 AM 44.6 °F 39.2 °F 30.2 °F 57% 30.04 in 10.0 mi East 10.4 mph - N/A   Overcast
3:56 AM 44.6 °F 39.2 °F 30.2 °F 57% 30.03 in 10.0 mi East 10.4 mph - N/A   Overcast
4:15 AM 44.6 °F 38.4 °F 30.2 °F 57% 30.03 in 10.0 mi ENE 12.7 mph 16.1 mph N/A   Overcast
4:36 AM 44.6 °F 38.1 °F 30.2 °F 57% 30.03 in 10.0 mi East 13.8 mph 23.0 mph N/A   Overcast
4:56 AM 44.6 °F 38.1 °F 30.2 °F 57% 30.04 in 10.0 mi East 13.8 mph 21.9 mph N/A   Overcast
5:15 AM 44.6 °F 37.8 °F 30.2 °F 57% 30.04 in 10.0 mi East 15.0 mph 20.7 mph N/A   Overcast
5:36 AM 44.6 °F 39.7 °F 32.0 °F 61% 30.05 in 10.0 mi East 9.2 mph 16.1 mph N/A   Overcast
5:56 AM 44.6 °F 38.8 °F 32.0 °F 61% 30.06 in 10.0 mi East 11.5 mph 20.7 mph N/A   Overcast
6:15 AM 44.6 °F 37.8 °F 32.0 °F 61% 30.06 in 10.0 mi East 15.0 mph 21.9 mph N/A   Overcast
6:36 AM 44.6 °F 38.1 °F 30.2 °F 57% 30.06 in 10.0 mi East 13.8 mph 21.9 mph N/A   Overcast
7:16 AM 46.4 °F 41.1 °F 32.0 °F 57% 30.07 in 10.0 mi East 11.5 mph 17.3 mph N/A   Mostly Cloudy
7:36 AM 46.4 °F 40.4 °F 32.0 °F 57% 30.08 in 10.0 mi East 13.8 mph 18.4 mph N/A   Overcast
7:55 AM 46.4 °F 41.1 °F 32.0 °F 57% 30.08 in 10.0 mi East 11.5 mph 18.4 mph N/A   Mostly Cloudy
8:16 AM 48.2 °F - 32.0 °F 54% 30.08 in 10.0 mi East 17.3 mph 21.9 mph N/A   Scattered Clouds
8:36 AM 51.8 °F - 30.2 °F 44% 30.08 in 10.0 mi East 16.1 mph 20.7 mph N/A   Scattered Clouds
8:56 AM 51.8 °F - 30.2 °F 44% 30.09 in 10.0 mi East 15.0 mph 23.0 mph N/A   Clear
9:16 AM 51.8 °F - 30.2 °F 44% 30.08 in 10.0 mi East 18.4 mph 25.3 mph N/A   Clear
9:36 AM 51.8 °F - 32.0 °F 47% 30.08 in 10.0 mi East 13.8 mph 19.6 mph N/A   Clear
9:56 AM 53.6 °F - 32.0 °F 44% 30.08 in 10.0 mi East 15.0 mph 18.4 mph N/A   Clear
10:16 AM 55.4 °F - 32.0 °F 41% 30.08 in 10.0 mi East 13.8 mph 20.7 mph N/A   Clear
10:36 AM 55.4 °F - 32.0 °F 41% 30.07 in 10.0 mi East 16.1 mph - N/A   Clear
10:56 AM 53.6 °F - 32.0 °F 44% 30.08 in 10.0 mi East 12.7 mph - N/A   Clear
11:16 AM 55.4 °F - 32.0 °F 41% 30.07 in 10.0 mi ENE 17.3 mph - N/A   Clear
11:35 AM 55.4 °F - 32.0 °F 41% 30.07 in 10.0 mi East 12.7 mph 20.7 mph N/A   Clear
11:56 AM 53.6 °F - 32.0 °F 44% 30.07 in 10.0 mi East 13.8 mph 17.3 mph N/A   Clear
12:16 PM 53.6 °F - 32.0 °F 44% 30.07 in 10.0 mi East 13.8 mph - N/A   Clear
12:36 PM 51.8 °F - 32.0 °F 47% 30.07 in 10.0 mi East 15.0 mph 21.9 mph N/A   Clear
12:56 PM 51.8 °F - 32.0 °F 47% 30.08 in 10.0 mi East 10.4 mph - N/A   Mostly Cloudy
1:15 PM 51.8 °F - 32.0 °F 47% 30.07 in 10.0 mi East 10.4 mph - N/A   Overcast
1:36 PM 51.8 °F - 30.2 °F 44% 30.07 in 10.0 mi East 12.7 mph - N/A   Scattered Clouds
2:15 PM 55.4 °F - 30.2 °F 38% 30.06 in 10.0 mi ENE 15.0 mph 24.2 mph N/A   Clear
2:36 PM 55.4 °F - 30.2 °F 38% 30.06 in 10.0 mi East 15.0 mph 19.6 mph N/A   Clear
2:56 PM 55.4 °F - 28.4 °F 36% 30.05 in 10.0 mi East 18.4 mph 24.2 mph N/A   Clear
3:15 PM 57.2 °F - 28.4 °F 33% 30.05 in 10.0 mi East 12.7 mph 20.7 mph N/A   Clear
3:36 PM 57.2 °F - 28.4 °F 33% 30.04 in 10.0 mi East 11.5 mph 18.4 mph N/A   Clear
3:56 PM 55.4 °F - 28.4 °F 36% 30.04 in 10.0 mi East 15.0 mph 21.9 mph N/A   Clear
4:15 PM 55.4 °F - 28.4 °F 36% 30.04 in 10.0 mi East 16.1 mph 20.7 mph N/A   Scattered Clouds
4:36 PM 55.4 °F - 28.4 °F 36% 30.04 in 10.0 mi East 18.4 mph 26.5 mph N/A   Mostly Cloudy
4:55 PM 55.4 °F - 28.4 °F 36% 30.04 in 10.0 mi East 19.6 mph 24.2 mph N/A   Scattered Clouds
5:16 PM 55.4 °F - 28.4 °F 36% 30.04 in 10.0 mi East 18.4 mph 24.2 mph N/A   Scattered Clouds
5:36 PM 57.2 °F - 28.4 °F 33% 30.04 in 10.0 mi East 13.8 mph 24.2 mph N/A   Mostly Cloudy
5:55 PM 55.4 °F - 28.4 °F 36% 30.03 in 10.0 mi East 13.8 mph 19.6 mph N/A   Overcast
6:16 PM 55.4 °F - 28.4 °F 36% 30.03 in 10.0 mi East 12.7 mph 19.6 mph N/A   Mostly Cloudy
6:36 PM 55.4 °F - 28.4 °F 36% 30.04 in 10.0 mi East 15.0 mph 21.9 mph N/A   Mostly Cloudy
6:55 PM 53.6 °F - 30.2 °F 41% 30.04 in 10.0 mi East 16.1 mph 24.2 mph N/A   Overcast
7:16 PM 53.6 °F - 30.2 °F 41% 30.05 in 10.0 mi East 12.7 mph 19.6 mph N/A   Overcast
7:36 PM 53.6 °F - 30.2 °F 41% 30.05 in 10.0 mi East 13.8 mph 19.6 mph N/A   Overcast
7:55 PM 53.6 °F - 30.2 °F 41% 30.05 in 10.0 mi East 10.4 mph 18.4 mph N/A   Overcast
8:16 PM 53.6 °F - 30.2 °F 41% 30.05 in 10.0 mi East 15.0 mph 20.7 mph N/A   Overcast
8:36 PM 51.8 °F - 30.2 °F 44% 30.04 in 10.0 mi East 10.4 mph - N/A   Overcast
8:55 PM 51.8 °F - 30.2 °F 44% 30.04 in 10.0 mi East 9.2 mph 17.3 mph N/A   Overcast
9:16 PM 51.8 °F - 30.2 °F 44% 30.04 in 10.0 mi East 10.4 mph 16.1 mph N/A   Overcast
9:36 PM 50.0 °F - 30.2 °F 47% 30.04 in 10.0 mi East 9.2 mph - N/A   Overcast
9:55 PM 50.0 °F - 32.0 °F 50% 30.05 in 10.0 mi East 8.1 mph 16.1 mph N/A   Overcast
10:16 PM 48.2 °F - 30.2 °F 50% 30.03 in 10.0 mi East 10.4 mph 16.1 mph N/A   Overcast
10:36 PM 48.2 °F - 32.0 °F 54% 30.04 in 10.0 mi East 9.2 mph 17.3 mph N/A   Overcast
10:55 PM 46.4 °F 41.9 °F 32.0 °F 57% 30.03 in 10.0 mi East 9.2 mph - N/A   Overcast
11:16 PM 46.4 °F 41.5 °F 32.0 °F 57% 30.03 in 10.0 mi East 10.4 mph 16.1 mph N/A   Overcast
11:36 PM 46.4 °F 40.7 °F 32.0 °F 57% 30.03 in 10.0 mi East 12.7 mph 16.1 mph N/A   Overcast
11:56 PM 46.4 °F 42.4 °F 32.0 °F 57% 30.04 in 10.0 mi East 8.1 mph 17.3 mph N/A   Overcast